Weather History for KIEN - September, 2012

Change the Weather History Date:

Thursday, September 13, 2012

  Actual Average Record
Temperature  
Mean Temperature 60 °F 62 °F  
Max Temperature 78 °F 79 °F 93 °F (2000)
Min Temperature 42 °F 46 °F 33 °F (1999)
Degree Days  
Heating Degree Days 5 5  
Month to date heating degree days 27 48  
Since 1 July heating degree days 37 85  
Cooling Degree Days 0 2  
Month to date cooling degree days 67 47  
Year to date cooling degree days 1090 695  
Growing Degree Days 10 (Base 50)    
Moisture  
Dew Point 41 °F    
Average Humidity 55    
Maximum Humidity 96    
Minimum Humidity 13    
Precipitation  
Precipitation 0.00 in 0.05 in 1.48 in (1998)
Month to date precipitation 0.53 0.73  
Year to date precipitation 9.49 14.52  
Sea Level Pressure  
Sea Level Pressure 30.35 in    
Wind  
Wind Speed 4 mph (West)    
Max Wind Speed 14 mph    
Max Gust Speed 18 mph    
Visibility 10 miles    
Events      
T = Trace of Precipitation, MM = Missing Value Source: NWS Daily Summary

Daily Weather History Graph

Daily Weather History Graph

Search for Another Location

Airport or City:

Trip Planner

Search our weather history database for the weather conditions in past years. The results will help you decide how hot, cold, wet, or windy it might be!

Date:

Astronomy

Sep. 13, 2012 Rise Set
Actual Time 6:28 AM MDT 7:02 PM MDT
Civil Twilight 5:59 AM MDT 7:31 PM MDT
Nautical Twilight 5:25 AM MDT 8:04 PM MDT
Astronomical Twilight 4:50 AM MDT 8:39 PM MDT
Moon 3:47 AM MDT (9/13) 5:28 PM MDT (9/13)
Length of Visible Light 13h 31m
Length of Day
12h 34m
Waning Crescent, 7% of the Moon is Illuminated
Sep 13
Waning Crescent
Sep 15
New
Sep 22
First Quarter
Sep 29
Full
Oct 8
Last Quarter

Hourly Weather History & Observations

Time (MDT) Temp. Windchill Dew Point Humidity Pressure Visibility Wind Dir Wind Speed Gust Speed Precip Events Conditions
12:52 AM 48.9 °F - 46.0 °F 90% 30.35 in 10.0 mi Calm Calm - N/A   Clear
1:52 AM 46.9 °F - 45.0 °F 93% 30.35 in 10.0 mi Calm Calm - N/A   Clear
2:52 AM 46.0 °F - 44.1 °F 93% 30.35 in 8.0 mi Calm Calm - N/A   Clear
3:52 AM 44.1 °F - 42.1 °F 93% 30.35 in 10.0 mi Calm Calm - N/A   Clear
4:52 AM 43.0 °F - 41.0 °F 93% 30.36 in 10.0 mi Calm Calm - N/A   Clear
5:52 AM 45.0 °F 43.5 °F 43.0 °F 93% 30.37 in 10.0 mi West 3.5 mph - N/A   Clear
6:52 AM 46.0 °F - 44.1 °F 93% 30.39 in 10.0 mi Calm Calm - N/A   Clear
7:52 AM 51.1 °F - 48.0 °F 89% 30.40 in 10.0 mi SW 4.6 mph - N/A   Clear
8:52 AM 57.0 °F - 48.9 °F 74% 30.40 in 10.0 mi SW 6.9 mph - N/A   Clear
9:52 AM 61.0 °F - 48.9 °F 64% 30.39 in 10.0 mi SSW 6.9 mph - N/A   Clear
10:52 AM 64.9 °F - 50.0 °F 58% 30.38 in 10.0 mi Variable 5.8 mph - N/A   Clear
11:52 AM 68.0 °F - 48.9 °F 50% 30.37 in 10.0 mi SW 6.9 mph - N/A   Clear
12:52 PM 71.1 °F - 45.0 °F 39% 30.34 in 10.0 mi West 9.2 mph 18.4 mph N/A   Clear
1:52 PM 73.9 °F - 37.9 °F 27% 30.32 in 10.0 mi Variable 5.8 mph 16.1 mph N/A   Clear
2:52 PM 75.9 °F - 42.1 °F 30% 30.30 in 10.0 mi Variable 3.5 mph - N/A   Clear
3:52 PM 77.0 °F - 28.0 °F 17% 30.28 in 10.0 mi West 10.4 mph - N/A   Clear
4:52 PM 77.0 °F - 23.0 °F 13% 30.28 in 10.0 mi West 8.1 mph - N/A   Clear
5:52 PM 75.9 °F - 28.0 °F 17% 30.27 in 10.0 mi NNW 5.8 mph - N/A   Clear
6:52 PM 71.1 °F - 36.0 °F 28% 30.30 in 10.0 mi NNW 3.5 mph - N/A   Clear
7:52 PM 60.1 °F - 39.0 °F 46% 30.32 in 10.0 mi East 6.9 mph - N/A   Clear
8:52 PM 55.0 °F - 41.0 °F 59% 30.34 in 10.0 mi East 5.8 mph - N/A   Clear
9:52 PM 50.0 °F - 41.0 °F 71% 30.36 in 10.0 mi Calm Calm - N/A   Clear
10:52 PM 46.9 °F - 42.1 °F 83% 30.37 in 10.0 mi Calm Calm - N/A   Clear
11:52 PM 45.0 °F - 39.9 °F 82% 30.37 in 10.0 mi Calm Calm - N/A   Clear